Flag for Germany Weather past 2 weeks in Geesthacht, Schleswig-Holstein, Germany

37 °F

Passing clouds.

Feels Like: 30 °F
Forecast: 38 / 49 °F
Wind: 12 mph from South

Location: Hamburg-Fuhlsbuettel

Current Time: Nov 28, 2015 at 3:54:12 AM

Latest Report: Nov 28, 2015 at 3:20 AM

Visibility: N/A

Pressure: 29.62 "Hg

Humidity: 81%

Dew point: 32 °F

Location of GeesthachtLocation

Historic Weather in Geesthacht — Graph


Geesthacht temperature yesterday

Maximum temperature yesterday: 45 °F (at 2:50 PM)
Minimum temperature yesterday: 32 °F (at 4:50 AM)
Average temperature yesterday: 39 °F

Past Weeks' High & Low Weather Summary

High57 °F (Nov 13, 10:50 AM)100% (Nov 15, 12:20 AM)30.15 "Hg (Nov 15, 12:20 AM)
Low30 °F (Nov 22, 2:20 AM)58% (Nov 13, 3:50 PM)29.30 "Hg (Nov 21, 1:20 AM)
Average44 °F89%29.74 "Hg
* Reported Nov 13 2:20 AM — Nov 28 2:50 AM, Geesthacht, Weather by CustomWeather, © 2015

Note: Actual official high and low records may vary slightly from our data, if they occured in-between our weather recording intervals... More about our weather records


Geesthacht weather history for previous 24 hours

Time TempWeatherWind HumidityBarometerVisibility
2:50 AM
Sat, Nov 28
37 °FPassing clouds.15 mph81%29.62 "HgN/A
2:20 AM39 °FPartly cloudy.12 mph81%29.65 "HgN/A
1:50 AM39 °FPassing clouds.10 mph81%29.65 "HgN/A
1:20 AM39 °FPassing clouds.12 mph81%29.68 "HgN/A
12:50 AM39 °FPassing clouds.12 mph87%29.68 "HgN/A
11:50 PM
Fri, Nov 27
41 °FOvercast.15 mph81%29.71 "HgN/A
11:20 PM41 °FOvercast.13 mph81%29.74 "HgN/A
10:50 PM39 °FOvercast.13 mph81%29.74 "HgN/A
9:50 PM39 °FOvercast.14 mph87%29.77 "HgN/A
9:20 PM41 °FPassing clouds.14 mph76%29.77 "HgN/A
8:50 PM41 °FPassing clouds.16 mph76%29.80 "HgN/A
8:20 PM41 °FPartly cloudy.16 mph76%29.80 "HgN/A
7:50 PM41 °FClear.16 mph81%29.80 "Hg10 mi
7:20 PM41 °FClear.13 mph81%29.83 "Hg10 mi
6:20 PM41 °FClear.15 mph81%29.86 "Hg10 mi
5:50 PM41 °FClear.14 mph87%29.86 "Hg10 mi
5:20 PM41 °FClear.13 mph87%29.86 "Hg10 mi
4:50 PM41 °FClear.12 mph87%29.86 "Hg10 mi
4:20 PM43 °FClear.10 mph81%29.89 "Hg10 mi
3:50 PM43 °FScattered clouds.13 mph81%29.89 "HgN/A
3:20 PM43 °FPartly sunny.13 mph81%29.89 "HgN/A
2:50 PM45 °FPartly sunny.15 mph76%29.92 "HgN/A
2:20 PM43 °FPassing clouds.14 mph81%29.92 "HgN/A
1:50 PM43 °FScattered clouds.14 mph87%29.95 "HgN/A
1:20 PM43 °FPassing clouds.16 mph81%29.95 "HgN/A
12:50 PM41 °FPartly sunny.16 mph87%29.98 "HgN/A
12:20 PM41 °FScattered clouds.17 mph87%29.98 "Hg5 mi
11:50 AM41 °FScattered clouds.17 mph93%29.98 "Hg5 mi
11:20 AM39 °FScattered clouds.16 mph93%30.01 "Hg4 mi
10:50 AM39 °FBroken clouds.17 mph93%30.01 "Hg4 mi
10:20 AM39 °FPartly sunny.13 mph93%30.01 "Hg4 mi
9:50 AM37 °FScattered clouds.8 mph93%30.01 "Hg4 mi
9:20 AM37 °FScattered clouds.8 mph93%30.01 "Hg4 mi
8:50 AM37 °FScattered clouds.9 mph93%30.04 "HgN/A
8:20 AM36 °FPassing clouds.8 mph93%30.04 "HgN/A
7:50 AM36 °FPassing clouds.9 mph93%30.04 "HgN/A
7:20 AM36 °FPassing clouds.9 mph100%30.04 "HgN/A
6:50 AM34 °FPassing clouds.9 mph100%30.04 "HgN/A
6:20 AM34 °FPassing clouds.8 mph100%30.04 "HgN/A
5:50 AM34 °FPassing clouds.7 mph100%30.07 "HgN/A
4:50 AM32 °FPassing clouds.7 mph100%30.07 "HgN/A
4:20 AM34 °FPassing clouds.6 mph100%30.07 "HgN/A
3:50 AM34 °FPassing clouds.7 mph100%30.07 "HgN/A
3:20 AM34 °FPassing clouds.7 mph100%30.07 "HgN/A
Weather by CustomWeather, © 2015

See weather overviewHow to use our weather pages